Regional Weather Roundup
Issued by NWS

Home | Current Version | Previous Version | Text Only | Print | Product List | Glossary On
Versions: 1 2 3 4 5 6 7 8 9 10 11 12 13 14 15 16 17 18 19 20 21 22 23 24 25 26 27 28 29 30 31 32 33 34 35 36 37 38 39 40 41 42 43 44 45 46 47 48 49 50
000
ASUS43 KDMX 011707
RWRIA

WEATHER ROUNDUP FOR IOWA
NATIONAL WEATHER SERVICE DES MOINES IA
1200 PM CDT TUE SEP 01 2015

NOTE: "FAIR" INDICATES FEW OR NO CLOUDS BELOW 12,000 FEET WITH NO
SIGNIFICANT WEATHER AND/OR OBSTRUCTIONS TO VISIBILITY.

* - THESE STATIONS ARE NOT NWS STATIONS...THUS NOT UNDER NWS
QUALITY CONTROL.  THEY ALSO DO NOT REPORT WEATHER SUCH
AS PRECIPITATION OR FOG.

IAZ001>003-012>014-020>022-031>034-043>046-011800-
   NORTHWEST IOWA

CITY           SKY/WX    TMP DP  RH WIND       PRES   REMARKS
CARROLL *      SUNNY     82  72  69 SW14      29.95S HX  87
CHEROKEE *     MOSUNNY   82  70  65 SW14      29.94R HX  86
DENISON *      SUNNY     79  70  73 S9G16     29.94S HX  81
LE MARS *      SUNNY     79  70  73 SW10G17   29.92S HX  81
ORANGE CITY *  SUNNY     79  68  69 SW12      29.92S HX  81
SHELDON *      SUNNY     79  70  73 S9        29.91S HX  81
SIOUX CITY     MOSUNNY   81  67  62 SW9       29.91F HX  83
SPENCER        PTSUNNY   81  68  64 S9        29.92F HX  84
STORM LAKE *   SUNNY     79  70  73 SW13G18   29.95S HX  81
$$

IAZ055>058-069>071-079>083-090>094-011800-
   SOUTHWEST IOWA

CITY           SKY/WX    TMP DP  RH WIND       PRES   REMARKS
ATLANTIC *     SUNNY     82  72  69 SW12      29.97F HX  87
AUDUBON *      SUNNY     82  72  69 S9        29.98S HX  87
CLARINDA *     SUNNY     84  72  65 S9        29.99F HX  89
COUNCIL BLFS * SUNNY     81  70  69 S8        29.97S HX  84
CRESTON *      SUNNY     82  72  69 SW12      30.01F HX  87
LAMONI         SUNNY     85  71  63 S14       30.01F HX  90
RED OAK *      SUNNY     82  72  69 SW12      29.97F HX  87
SHENANDOAH *   SUNNY     84  72  65 S13       29.97S HX  89
$$

IAZ047>049-059>061-072>074-084-011800-
   CENTRAL IOWA

CITY           SKY/WX    TMP DP  RH WIND       PRES   REMARKS
AMES           SUNNY     84  71  65 SW12      29.96F HX  89
ANKENY *       SUNNY     84  72  65 SW12      29.97S HX  89
CHARITON *     SUNNY     84  70  61 SW10      30.01S HX  88
DES MOINES     MOSUNNY   86  69  56 SW13      29.97S HX  90
GRINNELL*      SUNNY     82  72  69 SW10      30.00S HX  87
KNOXVILLE *    SUNNY     84  70  61 SW10      29.98F HAZE    HX  88
MARSHALLTOWN   SUNNY     82  72  71 SW9       29.97F HX  87
PELLA *        SUNNY     86  73  66 SW8       30.00F HX  93
PERRY *          N/A     84  72  65 SW9       29.97S HX  89
$$

IAZ004>006-015-016-023>025-035-036-011800-
   NORTH CENTRAL IOWA

CITY           SKY/WX    TMP DP  RH WIND       PRES   REMARKS
ALGONA *       SUNNY     79  72  78 S13       29.94F HX  82
CLARION *      HAZE      81  72  74 SW8       29.95F VSB 1   HX  84
ESTHERVILLE    PTSUNNY   78  70  76 S8        29.92F HX  80
FORT DODGE *   MOSUNNY   81  70  69 SW10      29.96S HX  84
MASON CITY     SUNNY     81  72  74 S7        29.96F HX  85
FOREST CITY *  SUNNY     79  70  73 S8        29.94F HX  81
IOWA FALLS *     N/A     82  72  69 SW8       29.97F HX  87
$$

IAZ007>011-017>019-026>030-037>042-050>054-066-011800-
   NORTHEAST IOWA

CITY           SKY/WX    TMP DP  RH WIND       PRES   REMARKS
CEDAR RAPIDS   SUNNY     83  74  74 SW8       29.99F HX  89
CHARLES CITY * SUNNY     81  75  83 S8        29.97F HX  86
CLINTON *      SUNNY     84  73  70 SW10      30.04S HX  91
DECORAH *      SUNNY     81  73  78 VRB6G14   29.97F HX  85
DUBUQUE        SUNNY     82  73  74 SW10      30.01F HX  87
MONTICELLO *   SUNNY     84  73  70 S8        29.99F HX  91
OELWEIN *      SUNNY     81  73  78 SW8       29.99F HX  85
WATERLOO       SUNNY     82  72  71 SW10      29.96F HX  87
$$

IAZ064-065-067-068-078-011800-
   EAST CENTRAL IOWA

CITY           SKY/WX    TMP DP  RH WIND       PRES   REMARKS
DAVENPORT      SUNNY     85  72  65 SW10      30.02F HX  91
IOWA CITY      SUNNY     84  71  65 S10       30.01F HX  89
MT. PLEASANT * SUNNY     88  66  48 S10       30.02F HX  90
MUSCATINE *    SUNNY     88  70  55 SW13G18   30.01F HX  92
QUAD CITIES    SUNNY     87  71  58 SW9       30.01F HX  93
$$

IAZ062-063-075>077-085>089-095>099-011800-
   SOUTHEAST IOWA

CITY           SKY/WX    TMP DP  RH WIND       PRES   REMARKS
BURLINGTON     SUNNY     86  72  62 SW13      30.03F HX  92
FAIRFIELD *    SUNNY     88  70  55 SW9       30.01F HX  92
FORT MADISON * SUNNY     86  73  66 S8        30.04F HX  93
KEOKUK *       SUNNY     88  70  55 SW10G18   30.03F HX  92
OSKALOOSA *      N/A     86  70  58 SW9       30.01F HX  90
CENTERVILLE *  SUNNY     84  72  65 SW10      30.04F HX  89
OTTUMWA        SUNNY     84  72  67 SW14      29.99F HX  89
WASHINGTON *     N/A    N/A N/A N/A MISG        N/A
$$

ABBREVIATIONS USED IN REMARKS
   TC - TEMPERATURES IN CELSIUS
  WCI - WIND CHILL INDEX
   HX - HEAT INDEX
  VSB - VISIBILITY
$$



USA.gov is the U.S. government's official web portal to all federal, state and local government web resources and services.